Hlavní strana
METAR-TAF:

METAR-TAF

Letiště :

Lonesome Pine Airport

Wise, Virginie, Spojené státy americké

zeměpisná šířka: 36-59N, zeměpisná délka: 082-32W, výška: 817 m

Aktuální stav počasí

Zpráva byla vytvořena před 28 minutami, v 18:15 UTC
Jihojihozápadní vítr 6 kt
Teplota 11°C
Vlhkost vzduchu 94%
Tlak 1018 hPa
Viditelnost: 11.3 km
Zataženo ve výšce 1000 ft

METAR: KLNP 181815Z AUTO 21006KT 7SM OVC010 11/10 A3006 RMK AO2

Čas: 13:43 (18:43 UTC)


TAF: chybějící

Stav a předpovědi počasí z více než 4 000 letišť (zprávy METAR a TAF).

Červené a žluté tečky na mapě představují dostupné meteorologické stanice.

Když kurzor umístíte na tečku, zobrazí se název stanice.

Pak kliknutím zobrazíte stav a předpověď počasí.

Chcete-li změnit mapu, kliknutím na zelené tlačítko se znaménkem +mapu přiblížíte, kliknutím na zelené tlačítko se znaménkem – mapu oddálíte a kliknutím na zelené šipky přejdete na sousední mapy.


METAR-TAF: